SCP
0 0 0 0 0 0 0 0 0 0 0 0 0 0 0 0 0 0 0 0 0 0 0 0 0 0 1 1 1 1 1 1 1 2 1 1 1 1 1 1 1 1 1 1
0 0 0 0 0 0 0 0 0 0 0 0 0 0 0 0 0 0 0 0 0 0 0 0 0 0 1 1 1 1 1 1 1 2 2 1 1 1 1 1 1 1 1 1
0 0 0 0 0 0 0 0 0 0 0 0 0 0 0 0 0 0 0 0 0 0 0 0 0 0 0 1 1 1 1 1 1 2 2 1 1 1 1 1 1 1 1 1
0 0 0 0 0 0 0 0 0 0 0 0 0 0 0 0 0 0 0 0 0 0 0 0 0 0 0 0 1 1 1 1 2 2 2 1 2 1 1 1 1 1 1 1
0 0 0 0 0 0 0 0 0 0 0 0 0 0 0 0 0 0 0 0 0 0 0 0 0 0 0 0 0 1 1 1 1 1 1 1 2 2 1 1 1 1 1 1
0 0 0 0 0 0 0 0 0 0 0 0 0 0 0 0 0 0 0 0 0 0 0 0 0 0 0 0 0 0 0 1 1 1 1 1 1 2 1 1 1 1 1 1
0 0 0 0 0 0 0 0 0 0 0 0 0 0 0 0 0 0 0 0 0 0 0 0 0 0 0 0 0 0 0 0 0 0 1 1 1 1 1 1 1 1 0 0
0 0 0 0 0 0 0 0 0 0 0 0 0 0 0 0 0 0 0 0 0 0 0 0 0 0 0 0 0 0 0 0 0 0 0 0 0 0 0 0 0 0 0 0
0 0 0 0 0 0 0 0 0 0 0 0 0 0 0 0 0 0 0 0 0 0 0 0 0 0 0 0 0 0 0 0 0 0 0 0 0 0 0 0 0 0 0 0
0 0 0 0 0 0 0 0 0 0 0 0 0 0 0 0 0 0 0 0 0 0 0 0 0 0 0 0 0 0 0 0 0 0 0 0 0 0 0 0 0 0 0 0
0 0 0 0 0 0 0 0 0 0 0 0 0 0 0 0 0 0 0 0 0 0 0 0 0 0 0 0 0 0 0 0 0 0 0 0 0 0 0 0 0 0 0 0
0 0 0 0 0 0 0 0 0 0 0 0 0 0 0 0 0 0 0 0 0 0 0 0 0 0 0 0 0 0 0 0 0 0 0 0 0 0 0 0 0 0 0 0
0 0 0 0 0 0 0 0 0 0 0 0 0 0 0 0 0 0 0 0 0 0 0 0 0 0 0 0 0 0 0 0 0 0 0 0 0 0 0 0 0 0 0 0
0 0 0 0 0 0 0 0 0 0 0 0 0 0 0 0 0 0 0 0 0 0 0 0 0 0 0 0 0 0 0 0 0 0 0 0 0 0 0 0 0 0 0 0
0 0 0 0 0 0 0 0 0 0 0 0 0 0 0 0 0 0 0 0 0 0 0 0 0 0 0 0 0 0 0 0 0 0 0 0 0 0 0 0 0 0 0 0
0 0 0 0 0 0 0 0 0 0 0 0 0 0 0 0 0 0 0 0 0 0 0 0 0 0 0 0 0 0 0 0 0 0 0 0 0 0 0 0 0 0 0 0
0 0 0 0 0 0 0 0 0 0 0 0 0 0 0 0 0 0 0 0 0 0 0 0 0 0 0 0 0 0 0 0 0 0 0 0 0 0 0 0 0 0 0 0
0 0 0 0 0 0 0 0 0 0 0 0 0 0 0 0 0 0 0 0 0 0 0 0 0 0 0 0 0 0 0 0 0 0 0 0 0 0 0 0 0 0 0 0
0 0 0 0 0 0 0 0 0 0 0 0 0 0 0 0 0 0 0 0 0 0 0 0 0 0 0 0 0 0 0 0 0 0 0 0 0 0 0 0 0 0 0 0
0 0 0 0 0 0 0 0 0 0 0 0 0 0 0 0 0 0 0 0 0 0 0 0 0 0 0 0 0 0 0 0 0 0 0 0 0 0 0 0 0 0 0 0
0 0 0 0 0 0 0 0 0 0 0 0 0 0 0 0 0 0 0 0 0 0 0 0 0 0 0 0 0 0 0 0 0 0 0 0 0 0 0 0 0 0 0 0
0 0 0 0 0 0 0 0 0 0 0 0 0 0 0 0 0 0 0 0 0 0 0 0 0 0 0 0 0 0 0 0 0 0 0 0 0 0 0 0 0 0 0 0
0 0 0 0 0 0 0 0 0 0 0 0 0 0 0 0 0 0 0 0 0 0 0 0 0 0 0 0 0 0 0 0 0 0 0 0 0 0 0 0 0 0 0 0
0 0 0 0 0 0 0 0 0 0 0 0 0 0 0 0 0 0 0 0 0 0 0 0 0 0 0 0 0 0 0 0 0 0 0 0 0 0 0 0 0 0 0 0
0 0 0 0 0 0 0 0 0 0 0 0 0 0 0 0 0 0 0 0 0 0 0 0 0 0 0 0 0 0 0 0 0 0 0 0 0 0 0 0 0 0 0 0
0 0 0 0 0 0 0 0 0 0 0 0 0 0 0 0 0 0 0 0 0 0 0 0 0 0 0 0 0 0 0 0 0 0 0 0 0 0 0 0 0 0 0 0
Wind_Speed
7 6 9 14 15 11 15 15 16 12 10 14 16 15 11 8 11 14 15 15 15 13 7 3 3 3 3 5 6 8 8 8 7 6 5 5 5 5 4 4 4 5 5 6
6 8 8 8 9 9 14 15 13 8 9 10 12 15 14 13 13 14 15 16 17 15 10 6 4 4 5 5 6 7 7 7 7 5 4 3 3 3 3 2 2 2 3 4
7 5 8 9 11 13 13 15 14 11 8 7 8 12 17 15 14 14 15 15 16 15 13 9 6 5 5 5 6 5 5 6 6 5 4 3 3 3 3 3 2 1 2 3
3 4 8 11 12 13 10 10 11 13 12 7 11 9 13 15 16 16 16 16 16 13 11 9 8 8 7 6 4 5 5 5 5 5 5 6 5 4 3 2 1 1 1 2
4 7 11 11 10 10 7 9 10 11 9 6 9 9 6 8 15 17 17 17 16 14 13 12 11 9 8 7 6 5 6 5 4 4 4 4 4 2 2 2 2 2 1 1
2 2 5 6 5 6 10 11 8 5 6 7 10 10 7 7 11 13 14 16 16 15 15 13 10 9 9 8 7 7 7 6 5 4 4 3 4 3 3 3 2 2 1 1
3 3 2 4 8 6 11 12 7 7 7 7 5 9 8 5 7 9 10 10 10 10 11 11 11 12 11 11 9 8 8 7 6 5 4 3 3 3 3 2 2 2 2 1
5 5 3 3 5 8 11 9 5 6 8 5 6 9 6 5 5 6 8 8 8 8 9 10 11 12 11 11 10 9 9 7 6 5 4 3 2 1 1 1 2 2 2 2
5 4 3 2 1 7 9 5 1 2 3 4 6 5 7 6 5 4 4 5 6 7 7 9 10 11 11 11 11 10 9 8 6 5 4 3 2 1 1 1 1 1 1 1
3 6 4 3 4 3 2 6 4 3 5 5 5 5 4 3 1 1 2 4 4 4 5 7 9 11 10 10 9 9 8 7 6 5 4 2 2 1 1 1 1 0 0 0
2 5 5 4 6 8 7 6 4 3 3 3 3 2 1 1 1 3 5 5 4 3 4 6 8 10 10 10 9 8 8 7 6 5 4 3 3 2 2 1 1 0 0 0
2 4 4 2 1 1 4 7 8 5 4 3 3 1 2 3 3 4 4 4 3 2 4 7 9 10 10 10 9 8 7 7 6 5 4 3 3 3 2 2 1 1 1 2
4 5 6 4 3 4 5 6 7 4 2 5 5 4 2 3 4 4 4 4 2 2 5 7 9 10 10 10 9 8 7 6 6 5 4 4 4 3 3 2 2 2 2 2
2 2 2 4 2 6 7 9 9 8 6 8 11 11 8 8 9 9 8 7 4 4 7 9 10 10 10 9 9 8 7 7 6 6 5 4 4 3 3 3 3 3 3 3
1 2 1 1 1 3 5 9 12 13 13 11 11 13 14 13 13 13 11 9 7 7 9 11 11 11 10 10 9 8 8 7 7 6 5 5 4 4 4 4 3 3 3 3
1 2 2 1 1 3 5 9 12 13 14 15 16 17 13 12 12 12 12 11 11 11 11 12 12 12 12 12 11 10 9 8 7 7 6 6 5 5 5 4 4 4 4 4
3 3 3 2 1 2 7 8 11 9 9 10 13 12 11 11 12 12 12 12 12 12 11 12 13 14 13 12 12 11 10 9 8 7 7 7 6 6 5 5 5 4 4 4
4 4 2 2 3 6 1 1 3 7 7 8 10 12 12 13 14 13 11 12 12 12 11 11 11 12 12 11 11 10 10 10 9 8 7 7 7 6 6 6 5 5 4 4
3 4 3 3 4 5 2 1 3 4 1 2 5 9 10 11 10 8 5 8 10 11 10 8 9 10 10 11 12 11 11 10 9 9 8 8 7 7 7 6 6 5 5 4
3 3 3 4 4 3 2 2 1 4 3 4 5 9 10 9 6 6 8 9 8 7 5 4 6 8 10 11 12 12 11 11 10 9 8 8 7 7 7 7 6 5 4 4
5 4 5 6 5 3 3 2 3 4 2 7 8 9 9 7 8 11 12 9 6 4 1 3 6 7 9 11 12 12 11 11 9 8 8 7 7 7 7 6 5 5 5 4
5 4 5 5 6 3 4 2 0 4 6 7 9 9 10 10 10 10 9 7 5 3 1 3 5 6 7 10 11 11 10 9 9 9 8 8 8 7 6 7 6 6 6 5
2 2 2 3 1 4 3 2 3 5 7 8 9 11 10 10 9 9 8 6 4 2 1 2 4 6 7 9 10 10 9 10 10 10 9 8 8 7 7 7 8 7 6 5
2 4 3 3 1 4 2 2 5 7 8 10 10 11 10 10 10 9 7 5 3 2 2 3 5 6 7 8 9 8 9 10 11 10 9 9 9 8 8 6 6 6 7 6
3 4 3 4 4 6 2 6 11 11 10 11 11 10 10 10 10 9 7 6 4 2 3 4 5 6 7 8 8 8 9 11 11 10 9 9 8 8 8 7 7 8 8 7
1 3 4 4 6 7 10 12 14 13 12 12 12 12 10 9 10 9 7 6 4 3 3 4 6 6 6 8 8 9 10 11 11 9 9 8 7 7 7 7 7 11 11 12
Wind_Direction
165 183 191 190 199 209 189 191 192 193 180 201 214 226 228 221 225 231 232 232 235 236 230 192 180 186 190 196 198 197 195 195 194 193 199 205 212 215 216 222 234 240 244 242
153 202 195 184 185 184 178 183 180 170 178 201 216 229 233 231 230 231 231 230 231 231 219 198 188 186 189 188 190 191 190 186 189 194 192 198 197 210 213 202 209 235 251 255
169 165 170 178 177 175 183 185 176 160 157 195 209 232 231 232 235 239 239 237 235 230 225 214 207 194 187 186 184 179 176 175 179 180 172 163 170 181 189 194 199 240 274 267
160 164 174 179 180 174 175 180 171 165 170 184 204 233 221 222 227 232 235 235 236 233 230 221 211 204 193 180 168 166 163 160 165 177 187 194 201 208 199 197 201 226 284 290
168 173 174 176 175 173 154 159 166 178 188 188 204 238 233 211 228 230 231 233 236 235 230 223 213 199 181 167 163 158 152 146 149 160 171 190 200 200 179 196 215 225 219 295
103 140 173 168 145 147 136 137 126 160 195 222 212 225 249 213 231 233 231 233 235 236 232 225 209 184 169 163 160 157 150 138 136 141 152 173 180 188 198 214 229 236 236 256
116 124 137 157 136 148 166 156 152 175 201 223 178 224 251 248 243 248 248 242 243 245 239 225 201 186 176 169 163 160 154 144 140 137 137 138 157 187 210 226 239 253 256 264
142 145 154 167 171 166 179 186 192 186 193 177 180 230 247 262 271 271 271 267 258 248 237 222 205 192 179 171 166 162 156 147 142 138 131 126 137 172 188 231 259 267 283 302
147 127 108 96 117 162 169 185 346 56 123 193 200 234 267 251 252 253 262 265 260 251 236 220 200 189 177 170 168 163 155 149 145 142 140 137 140 157 172 209 248 268 288 305
124 124 131 127 124 53 186 158 171 180 185 211 203 227 226 167 145 14 335 314 298 269 235 208 190 180 172 166 161 159 156 150 146 147 141 139 141 139 160 196 208 272 326 314
136 127 136 159 189 171 157 174 195 189 243 240 211 171 160 193 359 338 340 336 316 274 223 195 180 172 165 158 159 157 155 153 154 153 150 157 150 148 162 162 146 143 112 75
135 126 131 134 62 270 209 197 194 196 198 233 253 203 124 236 280 287 310 334 326 250 198 183 174 168 166 165 164 162 161 162 159 156 160 160 157 168 177 162 149 147 126 90
149 144 138 152 185 195 212 207 215 221 189 207 228 234 131 227 250 257 286 311 301 208 184 179 178 179 176 172 171 169 168 164 161 164 170 171 174 179 179 164 151 142 125 109
141 158 219 190 156 172 193 204 204 200 216 234 238 252 246 259 271 281 295 299 277 220 200 193 191 189 184 180 177 175 172 168 168 172 178 181 178 174 166 155 150 138 127 117
151 147 128 52 79 163 201 209 209 216 230 245 258 260 265 274 285 291 292 285 265 240 219 207 200 195 189 186 183 180 175 173 174 177 181 178 169 162 159 155 146 134 124 114
127 140 144 164 181 216 237 231 224 231 238 247 262 271 277 286 289 284 278 271 260 248 231 218 208 200 196 192 186 181 179 175 176 180 179 170 171 168 165 158 149 139 129 117
163 155 172 185 157 245 250 235 222 220 226 237 253 270 297 297 289 284 280 271 259 253 238 222 211 205 200 194 186 182 177 171 177 181 176 175 177 174 168 160 155 149 136 126
171 167 177 180 196 234 61 67 226 228 249 252 266 284 295 297 298 290 282 275 267 256 244 229 216 206 197 185 179 174 170 173 177 180 180 179 179 174 166 163 159 150 143 138
199 181 180 205 238 265 288 178 199 209 228 327 288 302 314 316 298 280 289 289 276 267 253 239 218 199 183 176 171 168 171 175 179 183 182 180 178 174 171 169 162 154 149 141
177 207 208 203 241 242 78 52 204 212 187 36 334 323 327 325 309 327 341 322 304 290 264 228 190 175 173 170 166 170 174 178 184 184 180 177 177 176 174 169 160 156 154 151
178 196 215 222 240 265 358 344 189 227 30 350 330 325 324 310 293 311 318 318 317 319 300 168 165 169 168 163 166 174 177 184 180 172 169 171 175 175 169 162 159 157 160 162
205 204 207 213 226 231 40 98 102 353 342 326 323 324 319 307 304 310 318 323 331 344 71 149 157 156 157 165 170 176 180 174 166 166 169 172 173 170 167 166 165 171 175 182
238 291 282 249 305 43 35 76 34 350 325 325 321 319 317 311 311 316 318 319 321 319 179 166 162 155 163 175 180 180 174 166 165 169 175 176 175 175 176 179 180 182 189 200
27 353 302 282 311 340 326 23 350 340 324 318 315 313 312 309 310 312 312 309 299 269 205 182 175 176 180 185 189 183 169 168 171 177 179 179 181 182 185 189 194 196 197 204
347 339 316 288 328 334 337 344 336 328 322 319 319 315 311 308 305 307 305 301 290 258 212 196 199 198 193 188 192 183 174 174 179 182 182 184 188 190 193 200 206 208 214 214
14 349 322 302 330 310 302 317 322 318 318 318 315 313 314 309 303 302 297 294 283 262 227 211 212 211 201 194 195 189 183 183 184 187 189 190 191 194 198 202 212 224 226 228